Location: Hohe Wand Kleine Kanzel
(47.8330°N, 16.0170°E)
Time: 15:27:28
(UTC+02:00)

Courier 1B Rocket - Pass Details

Date: 09 August 2021
Orbit: 920 x 1202 km, 28.3° (Epoch: 27 September)

Event Time Altitude Azimuth Distance (km) Brightness Sun altitude
Rises 02:40:54 0° 243° (WSW) 3,918 - -22.6°
Reaches altitude 10° 02:45:54 10° 214° (SSW) 2,884 - -22.2°
Maximum altitude 02:48:15 12° 194° (SSW) 2,711 - -22.0°
Drops below altitude 10° 02:50:33 10° 174° (S) 2,810 - -21.8°
Sets 02:55:16 0° 144° (SE) 3,688 - -21.4°
